TimeCST,TemperatureF,Dew PointF,Humidity,Sea Level PressureIn,VisibilityMPH,Wind Direction,Wind SpeedMPH,Gust SpeedMPH,PrecipitationIn,Events,Conditions,WindDirDegrees,DateUTC
12:56 AM,30.0,27.0,88,30.26,9.0,Calm,Calm,-,N/A,,Clear,0,2013-12-16 06:56:00
1:56 AM,30.9,28.9,92,30.27,10.0,WNW,3.5,-,N/A,,Clear,300,2013-12-16 07:56:00
2:56 AM,28.9,27.0,92,30.27,10.0,Calm,Calm,-,N/A,,Clear,0,2013-12-16 08:56:00
3:56 AM,28.9,26.1,89,30.27,9.0,Calm,Calm,-,N/A,,Clear,0,2013-12-16 09:56:00
4:56 AM,28.0,26.1,92,30.27,8.0,North,3.5,-,N/A,,Clear,360,2013-12-16 10:56:00
5:56 AM,30.0,27.0,88,30.27,10.0,Calm,Calm,-,N/A,,Clear,0,2013-12-16 11:56:00
6:56 AM,28.0,25.0,88,30.29,8.0,Calm,Calm,-,N/A,,Clear,0,2013-12-16 12:56:00
7:56 AM,33.1,30.0,89,30.30,10.0,North,5.8,-,N/A,,Clear,350,2013-12-16 13:56:00
8:56 AM,39.0,32.0,76,30.32,10.0,North,10.4,-,N/A,,Clear,350,2013-12-16 14:56:00
9:56 AM,44.1,30.9,60,30.33,10.0,North,4.6,-,N/A,,Clear,350,2013-12-16 15:56:00
10:56 AM,50.0,30.9,48,30.30,10.0,West,3.5,-,N/A,,Clear,260,2013-12-16 16:56:00
11:56 AM,54.0,28.9,38,30.27,10.0,NW,3.5,-,N/A,,Clear,320,2013-12-16 17:56:00
12:56 PM,57.9,28.9,33,30.25,10.0,NNW,5.8,-,N/A,,Clear,330,2013-12-16 18:56:00
1:56 PM,59.0,28.0,31,30.24,10.0,West,6.9,-,N/A,,Clear,270,2013-12-16 19:56:00
2:56 PM,59.0,25.0,27,30.23,10.0,Calm,Calm,-,N/A,,Clear,0,2013-12-16 20:56:00
3:56 PM,57.9,27.0,31,30.24,10.0,NNW,3.5,-,N/A,,Clear,330,2013-12-16 21:56:00
4:56 PM,51.1,34.0,52,30.25,10.0,Calm,Calm,-,N/A,,Clear,0,2013-12-16 22:56:00
5:56 PM,44.1,36.0,73,30.26,10.0,Calm,Calm,-,N/A,,Clear,0,2013-12-16 23:56:00
6:56 PM,41.0,35.1,79,30.27,10.0,Calm,Calm,-,N/A,,Clear,0,2013-12-17 00:56:00
7:56 PM,39.0,33.1,79,30.27,10.0,Calm,Calm,-,N/A,,Clear,0,2013-12-17 01:56:00
8:56 PM,37.0,33.1,86,30.29,10.0,Calm,Calm,-,N/A,,Clear,0,2013-12-17 02:56:00
9:56 PM,35.1,30.9,85,30.30,10.0,Calm,Calm,-,N/A,,Clear,0,2013-12-17 03:56:00
10:56 PM,34.0,30.9,89,30.29,10.0,Calm,Calm,-,N/A,,Clear,0,2013-12-17 04:56:00
11:56 PM,33.1,30.0,89,30.27,10.0,Calm,Calm,-,N/A,,Clear,0,2013-12-17 05:56:00